Regional Weather Roundup
Issued by NWS

Home | Current Version | Previous Version | Graphics & Text | Print | Product List | Glossary On
Versions: 1 2 3 4 5 6 7 8 9 10 11 12 13 14 15 16 17 18 19 20 21 22 23 24 25 26 27 28 29 30 31 32 33 34 35 36 37 38 39 40 41 42 43 44 45 46 47 48 49 50
111
ASUS43 KOAX 270302
RWRNE

WEATHER ROUNDUP FOR NEBRASKA
NATIONAL WEATHER SERVICE OMAHA NE
1000 PM CDT WED JUL 26 2017

NOTES: SATELLITE DATA IS BEING USED TO AUGMENT CLOUD COVER ABOVE
       12000 FEET.
       "FAIR" INDICATES FEW OR NO CLOUDS BELOW 12,000 FEET WITH NO
       SIGNIFICANT WEATHER AND/OR OBSTRUCTIONS TO VISIBILITY.


NEZ001>004-019>022-054>056-270400-
NEBRASKA PANHANDLE

CITY           SKY/WX    TMP DP  RH WIND       PRES   REMARKS
SCOTTSBLUFF    CLOUDY    73  60  63 NE6       30.19R
ALLIANCE       CLOUDY    73  59  61 E6        30.18R
CHADRON        PTCLDY    78  52  40 SE7       30.16R
GORDON         FAIR      72  57  59 E6        30.18R
KIMBALL        CLOUDY    72  60  66 E6        30.25R
SIDNEY         CLOUDY    73  63  70 E12       30.22R
$$

NEZ057>060-069>072-079>082-270400-
SOUTHWEST NEBRASKA

CITY           SKY/WX    TMP DP  RH WIND       PRES   REMARKS
NORTH PLATTE   CLOUDY    74  65  73 E6        30.12R
IMPERIAL       PTCLDY    71  63  75 NE7       30.14R
LEXINGTON      CLOUDY    73  69  88 NE3       30.10R
MCCOOK         CLOUDY    74  69  85 NE7       30.09S
OGALLALA       PTCLDY    73  70  91 CALM      30.15S
$$

NEZ005>010-023>029-035>040-094-270400-
NORTH CENTRAL NEBRASKA

CITY           SKY/WX    TMP DP  RH WIND       PRES   REMARKS
VALENTINE      CLEAR     76  56  49 NE8       30.14R
AINSWORTH      CLOUDY    70  65  85 E3        30.15R
BROKEN BOW     LGT RAIN  72  70  93 NE3       30.11R
O`NEILL        CLEAR     70  63  77 NE6       30.11R
ORD            CLOUDY    73  67  81 NE5       30.07R
THEDFORD       CLOUDY    72  69  90 E6        30.15S
$$

NEZ041-046>049-061>064-073>077-083>087-270400-
SOUTH CENTRAL NEBRASKA

CITY           SKY/WX    TMP DP  RH WIND       PRES   REMARKS
GRAND ISLAND   PTCLDY    73  73 100 N6        30.05S
AURORA         PTCLDY    71  71 100 NE3       30.04R FOG
HASTINGS       CLEAR     73  70  90 NE6       30.06R
HEBRON         CLOUDY    75  72  91 NE5       30.02R
HOLDREGE       MOCLDY    71  69  92 N5        30.07R
KEARNEY        MOCLDY    73  70  90 N8        30.07R
YORK           CLEAR     72  72 100 NE7       30.04R
$$

NEZ011>018-030>034-042>045-270400-
NORTHEAST NEBRASKA

CITY           SKY/WX    TMP DP  RH WIND       PRES   REMARKS
NORFOLK        PTCLDY    77  67  71 N12       30.03S
ALBION         CLOUDY    75  72  91 N3        30.06S
BLAIR          RAIN      73  72  96 N5        30.01R
COLUMBUS       CLEAR     73  72  96 N3        30.03R
FREMONT        CLEAR     74  73  98 CALM      30.01S
TEKAMAH        PTCLDY    74  72  93 CALM      29.99S
WAYNE          CLEAR     73  73  99 N6        30.04S
$$

NEZ050>053-065>068-078-088>093-270400-
SOUTHEAST NEBRASKA

CITY           SKY/WX    TMP DP  RH WIND       PRES   REMARKS
LINCOLN        MOCLDY    74  72  93 NE9       30.01R
OMAHA EPPLEY   MOCLDY    74  71  91 N3        29.99R
BEATRICE       MOCLDY    73  72  96 NE5       30.00R
FALLS CITY     CLOUDY    76  75  97 NE6       29.98R
NEBRASKA CITY  CLOUDY    75  75 100 CALM      30.00R FOG
$$

NEZ044-045-051>053-067-270400-
OMAHA AREA

CITY           SKY/WX    TMP DP  RH WIND       PRES   REMARKS
OMAHA EPPLEY   MOCLDY    74  71  91 N3        29.99R
BLAIR          RAIN      73  72  96 N5        30.01R
FREMONT        CLEAR     74  73  98 CALM      30.01S
MILLARD        CLEAR     76  74  94 CALM      30.00R
OFFUTT AFB     MOCLDY    74  72  95 CALM      29.99R
WAHOO            N/A     72  71  97 CALM      30.01R FOG
$$




USA.gov is the U.S. government's official web portal to all federal, state and local government web resources and services.